Tracking 29892 objects as of 21-Nov-2024
HD Live streaming from Space Station
objects crossing your sky now

STARLINK-6253

Track STARLINK-6253 now!
10-day predictions
STARLINK-6253 is classified as:


NORAD ID: 57083
Int'l Code: 2023-088AM
Perigee: 564.3 km
Apogee: 568.1 km
Inclination: 43.0 °
Period: 95.8 minutes
Semi major axis: 6937 km
RCS: Unknown
Launch date: June 22, 2023
Source: United States (US)
Launch site: AIR FORCE WESTERN TEST RANGE (AFWTR)
Your satellite tracking list
Your tracking list is empty




NASA's NSSDC Master Catalog

Two Line Element Set (TLE):
1 57083U 23088AM  24325.93153845  .00002228  00000-0  17991-3 0  9992
2 57083  43.0060 148.7817 0002696 271.4642  88.5892 15.02548452 78341
Source of the keplerian elements: AFSPC